Regional Weather Roundup
Issued by NWS

Home | Current Version | Previous Version | Graphics & Text | Print | Product List | Glossary On
Versions: 1 2 3 4 5 6 7 8 9 10 11 12 13 14 15 16 17 18 19 20 21 22 23 24 25 26 27 28 29 30 31 32 33 34 35 36 37 38 39 40 41 42 43 44 45 46 47 48 49 50
000
ASUS43 KFSD 290902
RWRSD

WEATHER ROUNDUP FOR SOUTH DAKOTA
NATIONAL WEATHER SERVICE SIOUX FALLS SD
400 AM CDT THU SEP 29 2016

NOTE: "FAIR" INDICATES FEW OR NO CLOUDS BELOW 12,000 FEET WITH NO
SIGNIFICANT WEATHER AND/OR OBSTRUCTIONS TO VISIBILITY.


SDZ001>005-009-010-012>017-291000-
NORTHWEST AND NORTH CENTRAL SOUTH DAKOTA

CITY           SKY/WX    TMP DP  RH WIND       PRES   REMARKS
BUFFALO          N/A     50  36  58 SE13      30.24F
FAITH            N/A     45  42  89 SE13      30.34S
MOBRIDGE       CLEAR     48  43  82 S8        30.36S
$$

SDZ012>016-024>037-041>051-057-063-072>074-291000-
SOUTHWEST AND SOUTH CENTRAL SOUTH DAKOTA

CITY           SKY/WX    TMP DP  RH WIND       PRES   REMARKS
RAPID CTY ARPT CLEAR     43  35  73 SE6       30.32F
PIERRE         CLEAR     39  37  92 E3        30.37R
CUSTER         CLEAR     42  35  76 NW3       30.40F
PHILIP         CLEAR     43  41  93 E5        30.35F
PINE RIDGE     CLEAR     52  34  50 VRB3      30.35S
WINNER         FAIR      46  42  86 S8        30.39R
$$

SDZ004>011-016>023-039-040-291000-
NORTHEAST SOUTH DAKOTA

CITY           SKY/WX    TMP DP  RH WIND       PRES   REMARKS
ABERDEEN       CLOUDY    39  37  92 CALM      30.42R
WATERTOWN      CLOUDY    45  42  89 CALM      30.42R
SISSETON         N/A     35  33  92 CALM      30.43R
$$

SDZ017-020-022-023-036>040-048>070-291000-
SOUTHEAST SOUTH DAKOTA

CITY           SKY/WX    TMP DP  RH WIND       PRES   REMARKS
SIOUX FALLS    CLOUDY    43  42  97 CALM      30.42R
HURON          CLOUDY    37  37 100 CALM      30.41R
MITCHELL       CLOUDY    42  40  92 CALM      30.42R FOG
YANKTON        CLOUDY    45  43  93 NW3       30.40R
$$

ABBREVIATIONS USED IN REMARKS
   TC - TEMPERATURE IN CELSIUS
  WCI - WIND CHILL INDEX
   HX - HEAT INDEX
  VSB - VISIBILITY




USA.gov is the U.S. government's official web portal to all federal, state and local government web resources and services.